Location: ?????
(37.7324°N, 23.9257°E)
Time: 21:38:35
(UTC+00:00)

NOSS 3-4 (A) - Pass Details

Date: 29 November 2020
Orbit: 879 x 1333 km, 63.4° (Epoch: 18 January)

Event Time Altitude Azimuth Distance (km) Brightness Sun altitude
Exits shadow 04:00:46 21° 302° (WNW) 1,929 4.5 -15.2°
Maximum altitude 04:02:01 22° 320° (NW) 1,882 4.5 -15.0°
Drops below altitude 10° 04:06:47 10° 10° (N) 2,703 5.8 -14.1°
Sets 04:10:06 0° 25° (NNE) 3,726 6.7 -13.5°
